{"data":{"norad_id":53526,"epoch":"2026-09-20T22:36:35.114976Z","epoch_age_seconds":105453,"freshness":"FRESH","line1":"1 53526U 22100E   26263.94207309  .00004532  00000+0  19032-3 0  9990","line2":"2 53526  34.9945 194.3962 0009589 208.8652 151.1532 15.22822814227568","mean_motion":15.22822814,"eccentricity":0.0009589,"inclination_deg":34.9945,"raan_deg":194.3962,"arg_perigee_deg":208.8652,"mean_anomaly_deg":151.1532,"bstar":0.00019032,"rev_number":22756,"period_min":94.561231074386,"perigee_km":490.73800618619,"apogee_km":503.92377851013,"semimajor_km":6875.4678923482,"source":"CELESTRAK","updated_at":"2026-09-21T09:00:09.085110Z"}}